Date String (YYYY-MM-DD hh:mm:ss) UTC,Instrument flags,absolute air pressure of the measurement (hPa),sample flow rate (lpm),inlet stack bypass flow (lpm),air temperature of the measurement (°C),ambient temperature measured by the external sensor (°C),aerosol sample conditioner tube jacket temperature (°C),OPC LED temperature (°C),internal box temperature (°C),relative humidity of the measurement (%),span deviation,mass concentration of particles derived from Lorenz-Mie calculation of OPC scattering (μg/m³),mass concentration of particles derived from Lorenz-Mie calculation of OPC scattering (μg/m³),mass concentration of particles derived from Lorenz-Mie calculation of OPC scattering (μg/m³)
DateTimeUTC,F1_M11,P_M11,Q1_M11,Q2_M11,T1_M11,T2_M11,T3_M11,T4_M11,T5_M11,U1_M11,ZSPAN_M11,X0_M11,X2_M11,X1_M11
2024-05-08 10:00:00,SystemResetWarning,0818.1,5.01,000.00,020.7,020.0,000.0,028.9,022.3,009.2,0000.0,0002.31,0001.10,0000.60
2024-05-08 10:01:00,SystemResetWarning,0818.1,5.01,000.00,020.7,020.0,000.0,028.9,022.3,009.3,0000.0,0002.38,0001.15,0000.62
2024-05-08 10:02:00,SystemResetWarning,0818.0,4.99,000.00,020.7,019.9,000.0,028.9,022.3,009.2,0000.0,0002.34,0001.19,0000.63
2024-05-08 10:03:00,SystemResetWarning,0817.9,4.99,000.00,020.6,019.9,000.0,028.9,022.3,009.4,0000.0,0002.37,0001.20,0000.63
2024-05-08 10:04:00,SystemResetWarning,0817.8,4.99,000.00,020.6,019.9,000.0,028.9,022.3,009.6,0000.0,0002.65,0001.15,0000.63
2024-05-08 10:05:00,SystemResetWarning,0817.7,5.00,000.00,020.6,019.8,000.0,028.9,022.3,009.7,0000.0,0003.27,0001.20,0000.65
2024-05-08 10:06:00,SystemResetWarning,0817.8,5.01,000.00,020.6,019.8,000.0,028.9,022.2,009.5,0000.0,0003.47,0001.24,0000.65
2024-05-08 10:07:00,SystemResetWarning,0818.0,5.01,000.00,020.6,019.7,000.0,028.9,022.2,009.5,0000.0,0003.82,0001.25,0000.65
2024-05-08 10:08:00,SystemResetWarning,0818.0,4.99,000.00,020.6,019.7,000.0,028.8,022.2,009.7,0000.0,0003.82,0001.24,0000.65
2024-05-08 10:09:00,SystemResetWarning,0817.8,4.99,000.00,020.5,019.7,000.0,028.8,022.2,009.7,0000.0,0003.98,0001.29,0000.65
2024-05-08 10:10:00,SystemResetWarning,0817.8,5.00,000.00,020.5,019.7,000.0,028.8,022.1,009.7,0000.0,0004.10,0001.33,0000.65
2024-05-08 10:11:00,SystemResetWarning,0818.0,5.01,000.00,020.5,019.7,000.0,028.8,022.1,009.8,0000.0,0004.26,0001.39,0000.66
2024-05-08 10:12:00,SystemResetWarning,0818.0,5.00,000.00,020.5,019.6,000.0,028.8,022.1,009.8,0000.0,0004.32,0001.42,0000.67
2024-05-08 10:13:00,SystemResetWarning,0817.9,4.99,000.00,020.5,019.6,000.0,028.8,022.1,009.8,0000.0,0004.27,0001.36,0000.66
2024-05-08 10:14:00,SystemResetWarning,0818.0,5.00,000.00,020.4,019.6,000.0,028.7,022.0,009.8,0000.0,0004.63,0001.37,0000.66
2024-05-08 10:15:00,SystemResetWarning,0818.1,5.00,000.00,020.4,019.6,000.0,028.7,022.0,009.9,0000.0,0004.42,0001.37,0000.67
2024-05-08 10:16:00,SystemResetWarning,0818.1,5.01,000.00,020.4,019.5,000.0,028.7,022.0,010.0,0000.0,0003.60,0001.34,0000.66
2024-05-08 10:17:00,SystemResetWarning,0818.2,5.00,000.00,020.4,019.5,000.0,028.7,022.0,010.0,0000.0,0003.47,0001.32,0000.66
2024-05-08 10:18:00,SystemResetWarning,0818.0,4.99,000.00,020.4,019.5,000.0,028.7,021.9,010.0,0000.0,0003.23,0001.35,0000.67
2024-05-08 10:19:00,SystemResetWarning,0817.9,4.99,000.00,020.3,019.5,000.0,028.7,021.9,010.0,0000.0,0003.17,0001.33,0000.67
2024-05-08 10:20:00,SystemResetWarning,0818.0,5.00,000.00,020.3,019.5,000.0,028.6,021.9,009.7,0000.0,0003.18,0001.33,0000.68
2024-05-08 10:21:00,SystemResetWarning,0818.0,5.00,000.00,020.3,019.5,000.0,028.6,021.9,009.8,0000.0,0003.20,0001.36,0000.68
2024-05-08 10:22:00,SystemResetWarning,0818.0,4.99,000.00,020.3,019.5,000.0,028.6,021.9,010.0,0000.0,0002.98,0001.28,0000.67
2024-05-08 10:23:00,SystemResetWarning,0818.0,5.01,000.00,020.3,019.5,000.0,028.6,021.9,009.8,0000.0,0002.99,0001.27,0000.67
2024-05-08 10:24:00,SystemResetWarning,0818.0,5.01,000.00,020.3,019.4,000.0,028.6,021.9,009.9,0000.0,0002.98,0001.27,0000.67
2024-05-08 10:25:00,SystemResetWarning,0817.9,4.99,000.00,020.3,019.4,000.0,028.6,021.8,009.9,0000.0,0002.80,0001.27,0000.68
2024-05-08 10:26:00,SystemResetWarning,0818.0,5.00,000.00,020.2,019.4,000.0,028.5,021.8,009.7,0000.0,0002.53,0001.26,0000.68
2024-05-08 10:27:00,SystemResetWarning,0818.0,5.00,000.00,020.2,019.4,000.0,028.5,021.8,009.7,0000.0,0002.74,0001.32,0000.70
2024-05-08 10:28:00,SystemResetWarning,0818.0,5.00,000.00,020.2,019.4,000.0,028.5,021.7,009.7,0000.0,0002.77,0001.34,0000.71
2024-05-08 10:29:00,SystemResetWarning,0818.1,5.00,000.00,020.2,019.4,000.0,028.5,021.7,009.7,0000.0,0002.64,0001.28,0000.70
2024-05-08 10:30:00,SystemResetWarning,0818.1,4.99,000.00,020.2,019.4,000.0,028.5,021.7,009.7,0000.0,0002.73,0001.32,0000.70
2024-05-08 10:31:00,SystemResetWarning,0818.2,5.00,000.00,020.2,019.5,000.0,028.4,021.7,009.6,0000.0,0002.74,0001.33,0000.70
2024-05-08 10:32:00,SystemResetWarning,0818.1,5.02,000.00,020.2,019.5,000.0,028.4,021.8,009.7,0000.0,0002.67,0001.29,0000.69
2024-05-08 10:33:00,SystemResetWarning,0818.3,5.00,000.00,020.2,019.5,000.0,028.4,021.8,009.6,0000.0,0002.82,0001.33,0000.69
2024-05-08 10:34:00,SystemResetWarning,0818.2,4.99,000.00,020.2,019.5,000.0,028.4,021.7,009.6,0000.0,0003.02,0001.35,0000.69
2024-05-08 10:35:00,SystemResetWarning,0818.1,4.99,000.00,020.2,019.5,000.0,028.4,021.7,009.6,0000.0,0004.03,0001.36,0000.69
2024-05-08 10:36:00,SystemResetWarning,0818.1,5.00,000.00,020.2,019.5,000.0,028.4,021.8,009.7,0000.0,0004.90,0001.39,0000.67
2024-05-08 10:37:00,SystemResetWarning,0818.2,5.00,000.00,020.2,019.5,000.0,028.4,021.7,009.7,0000.0,0006.11,0001.40,0000.67
2024-05-08 10:38:00,SystemResetWarning,0818.3,5.00,000.00,020.2,019.5,000.0,028.4,021.8,009.8,0000.0,0006.03,0001.38,0000.67
2024-05-08 10:39:00,SystemResetWarning,0818.1,5.00,000.00,020.2,019.5,000.0,028.4,021.8,009.8,0000.0,0006.21,0001.40,0000.67
2024-05-08 10:40:00,SystemResetWarning,0818.0,5.00,000.00,020.2,019.5,000.0,028.4,021.8,009.7,0000.0,0006.46,0001.39,0000.67
2024-05-08 10:41:00,SystemResetWarning,0818.0,5.00,000.00,020.2,019.6,000.0,028.4,021.8,009.7,0000.0,0006.42,0001.37,0000.67
2024-05-08 10:42:00,SystemResetWarning,0818.2,5.00,000.00,020.2,019.6,000.0,028.4,021.8,009.9,0000.0,0006.83,0001.37,0000.67
2024-05-08 10:43:00,SystemResetWarning,0818.3,5.01,000.00,020.2,019.6,000.0,028.4,021.8,010.0,0000.0,0007.32,0001.41,0000.68
2024-05-08 10:44:00,SystemResetWarning,0818.1,5.00,000.00,020.2,019.6,000.0,028.4,021.8,009.8,0000.0,0007.37,0001.42,0000.68
2024-05-08 10:45:00,SystemResetWarning,0818.2,5.01,000.00,020.2,019.6,000.0,028.4,021.9,009.6,0000.0,0007.17,0001.36,0000.67
2024-05-08 10:46:00,SystemResetWarning,0818.1,5.00,000.00,020.2,019.6,000.0,028.4,021.8,009.6,0000.0,0007.19,0001.36,0000.68
2024-05-08 10:47:00,SystemResetWarning,0817.9,5.00,000.00,020.2,019.6,000.0,028.4,021.8,009.4,0000.0,0006.77,0001.37,0000.70
2024-05-08 10:48:00,SystemResetWarning,0818.0,5.00,000.00,020.2,019.6,000.0,028.4,021.8,009.4,0000.0,0004.91,0001.37,0000.72
2024-05-08 10:49:00,SystemResetWarning,0817.9,4.99,000.00,020.2,019.6,000.0,028.4,021.8,009.6,0000.0,0004.90,0001.37,0000.72
2024-05-08 10:50:00,SystemResetWarning,0817.9,5.00,000.00,020.2,019.6,000.0,028.4,021.8,009.4,0000.0,0005.05,0001.38,0000.72
2024-05-08 10:51:00,SystemResetWarning,0817.8,5.01,000.00,020.2,019.6,000.0,028.4,021.9,009.4,0000.0,0005.15,0001.45,0000.74
2024-05-08 10:52:00,SystemResetWarning,0817.9,5.01,000.00,020.2,019.6,000.0,028.4,021.8,009.3,0000.0,0005.14,0001.47,0000.76
2024-05-08 10:53:00,SystemResetWarning,0817.8,5.00,000.00,020.2,019.6,000.0,028.4,021.8,009.5,0000.0,0004.96,0001.52,0000.78
2024-05-08 10:54:00,SystemResetWarning,0818.0,4.99,000.00,020.2,019.6,000.0,028.4,021.8,009.4,0000.0,0005.04,0001.54,0000.79
2024-05-08 10:55:00,SystemResetWarning,0818.0,4.99,000.00,020.2,019.6,000.0,028.4,021.8,009.4,0000.0,0005.38,0001.53,0000.80
2024-05-08 10:56:00,SystemResetWarning,0817.9,5.00,000.00,020.2,019.6,000.0,028.4,021.8,009.5,0000.0,0005.50,0001.57,0000.81
2024-05-08 10:57:00,SystemResetWarning,0818.1,4.99,000.00,020.2,019.6,000.0,028.4,021.9,009.9,0000.0,0004.79,0001.58,0000.82
2024-05-08 10:58:00,SystemResetWarning,0818.2,5.00,000.00,020.2,019.6,000.0,028.5,021.9,010.1,0000.0,0004.70,0001.57,0000.81
2024-05-08 10:59:00,SystemResetWarning,0818.2,5.00,000.00,020.2,019.5,000.0,028.5,021.8,010.3,0000.0,0004.86,0001.60,0000.80
